sat.trackr.live / text

‹ back to catalog

STARLINK-31971

NORAD 59934 · 2024-106N

PAYLOAD ACTIVE UNKNOWN

§ Identity

Operator
Country
US
Launch date
2024-06-01
Launch site
AFETR
Launch vehicle
Mass (kg)
RCS (m²)

Purposes: comms

External: N2YO · Heavens-Above · Gunter

§ Orbital elements

Epoch: 2026-09-21T10:16:17.659488Z

Period
94.27 min
Inclination
43.0037°
Eccentricity
0.0000982
Mean motion
15.27575782 rev/d
Perigee alt
482.4 km
Apogee alt
483.7 km
Semi-major
6,861.2 km
B*
8.8907e-6
RAAN
303.8987°
Arg perigee
274.7873°
Mean anomaly
85.2867°
Rev number
13,037

§ Raw data

STARLINK-319711 59934U 24106N   26264.42798217 -.00000017  00000+0  88907-5 0  99982 59934  43.0037 303.8987 0000982 274.7873  85.2867 15.27575782130373

JSON: /api/v1/satellites/59934 · /tle

For live sub-satellite position, see the globe view (requires WebGL).

§ Visibility from observer

Set your observer location to see the next 7 days of passes ≥ 10°. The values pass through the URL so the page stays shareable.

No JS? Fill the form by hand. The geolocation button needs JavaScript.